Lid_Strength_Index
5 5 6 5 6 6 6 6 6 6 6 6 6 6 6 6 6 7 10 6 7 10 9 8 7 9 9 9 11 9 10 12 13 16 15 15 16 15 15 13 14 15 16 18 18 21 19 10 10 12 11 10 8 8
4 4 5 5 6 6 6 6 6 6 6 6 6 6 5 5 5 5 10 5 4 8 8 6 6 5 5 6 8 8 8 11 11 16 16 15 14 17 16 17 12 16 13 14 13 15 11 9 8 7 8 9 9 8
3 4 4 5 5 6 6 6 6 6 6 6 5 5 5 5 5 5 8 6 6 7 8 9 9 6 5 5 4 8 7 7 9 11 14 14 16 13 15 16 14 12 10 12 13 10 10 8 7 7 7 8 7 6
4 4 4 5 6 6 6 5 5 5 5 5 5 5 5 4 3 3 6 5 6 7 11 11 7 8 6 6 6 6 7 9 8 8 11 11 13 11 15 13 14 11 10 12 12 10 9 8 8 7 6 6 6 5
4 4 5 5 6 5 5 5 5 5 5 5 5 5 4 3 3 5 5 7 5 7 11 10 7 7 7 7 8 8 8 9 9 11 12 13 11 11 11 11 13 10 11 12 13 9 9 9 8 7 7 7 6 6
4 5 5 5 4 4 4 5 5 5 5 5 5 5 4 3 4 8 10 5 3 4 9 13 10 10 10 9 9 9 9 9 9 11 12 11 9 11 13 14 10 8 8 8 10 8 8 7 7 7 7 7 6 6
4 5 5 4 4 5 5 5 6 6 5 5 5 4 4 4 7 9 10 6 2 4 9 13 14 11 10 10 10 11 9 11 11 12 11 11 10 10 12 14 10 10 9 9 8 9 10 8 8 6 5 5 4 4
4 4 4 5 5 5 6 6 6 6 6 6 5 4 3 3 5 7 6 3 3 7 8 13 15 14 10 13 13 11 12 10 10 10 9 11 11 12 15 11 10 10 10 9 8 7 7 8 7 6 6 5 5 5
4 5 6 6 6 6 6 7 7 6 6 5 5 3 6 5 8 7 3 2 4 8 12 12 15 17 11 13 13 11 9 11 9 12 11 11 12 14 12 12 12 11 10 10 8 7 7 8 7 6 5 6 6 5
6 6 6 6 6 6 7 7 7 6 5 4 6 8 10 6 3 3 5 8 7 7 8 12 11 16 13 14 12 11 10 11 13 12 10 12 13 10 10 9 8 8 8 7 8 9 8 8 7 6 6 5 5 5
7 7 6 7 7 7 7 6 6 5 5 7 8 9 5 3 5 7 10 10 10 11 10 11 11 13 10 13 12 10 12 13 15 14 12 13 13 11 8 8 7 7 7 7 7 7 7 7 8 7 6 5 4 4
7 7 7 7 7 7 7 6 5 7 6 6 7 6 7 6 9 11 13 12 11 13 12 13 12 10 10 9 12 12 13 14 17 11 13 14 11 10 8 8 7 7 7 8 7 8 8 7 7 7 7 6 5 4
7 7 7 7 6 6 6 5 4 4 4 5 7 9 9 9 16 15 16 16 16 12 11 9 10 9 9 9 11 13 15 17 11 15 14 12 10 8 8 7 7 7 8 8 8 7 7 7 7 8 8 7 6 5
7 7 7 6 6 5 5 4 4 4 5 8 10 14 12 13 13 14 14 14 11 10 9 8 9 10 9 12 11 14 12 11 19 19 18 11 9 8 8 7 7 7 7 8 9 8 8 8 8 8 8 8 8 8
6 6 5 5 4 4 4 4 3 4 8 10 9 14 12 11 11 10 9 9 7 8 8 9 9 9 10 11 11 12 14 18 16 19 14 11 9 8 8 7 7 7 7 7 8 9 9 9 9 9 8 8 8 8
5 5 6 4 4 4 4 4 4 6 8 9 9 10 11 12 10 9 9 9 7 8 7 8 9 11 11 11 12 14 18 22 17 12 10 9 9 8 8 7 6 7 7 7 7 8 9 10 9 9 8 8 8 8
5 9 5 4 4 4 3 5 6 8 9 10 11 11 11 11 10 9 10 9 7 8 10 10 13 13 10 12 13 12 16 13 12 10 9 8 8 7 7 6 6 7 9 9 8 8 9 8 8 9 10 9 8 8
9 8 4 3 4 4 5 5 7 8 11 10 12 12 12 10 11 10 10 8 7 8 9 11 10 12 13 16 19 12 11 10 9 8 8 7 7 6 6 6 6 7 8 8 9 9 9 9 9 10 9 9 8 8
7 5 4 3 3 5 7 7 7 10 10 11 11 10 10 10 9 9 10 8 7 6 7 8 10 11 15 13 12 11 9 9 9 8 8 7 7 6 6 5 6 7 8 7 7 9 9 9 10 10 10 9 9 8
4 3 3 3 3 6 8 8 8 10 11 10 10 10 10 9 9 8 8 7 7 8 9 10 11 13 13 11 9 10 8 8 8 8 7 6 7 7 6 7 7 8 8 8 9 9 9 10 10 10 9 10 9 8
5 5 3 3 5 5 7 7 7 8 9 10 9 9 9 8 8 9 8 6 9 10 11 10 10 8 7 7 7 7 7 7 7 6 6 6 6 7 7 8 7 8 9 9 9 10 10 10 10 10 9 9 9 9
5 3 5 5 6 6 7 6 8 7 9 9 9 9 10 10 10 8 6 8 9 10 9 8 7 7 7 6 6 5 6 6 5 5 6 5 6 7 7 8 7 8 8 9 9 10 9 8 7 7 8 8 8 8
3 5 6 6 8 8 9 7 9 10 11 10 9 9 10 10 8 6 8 9 9 6 6 6 6 6 6 5 4 4 5 6 6 5 4 6 6 6 5 6 8 7 8 9 8 9 8 8 7 7 6 6 7 7
3 7 8 9 8 10 8 10 10 10 10 10 10 10 10 9 7 9 11 10 8 6 7 6 6 6 5 5 5 7 6 6 6 4 5 5 5 6 6 7 7 5 7 7 8 8 7 6 7 6 6 6 6 6
9 10 8 13 8 9 10 9 10 10 10 10 11 10 9 8 10 10 11 10 8 8 7 6 6 6 6 7 6 6 5 6 6 6 6 7 7 8 8 8 7 5 5 6 7 7 8 7 6 5 5 6 6 7
12 10 12 10 10 10 10 11 10 10 10 11 9 8 7 9 11 11 10 9 8 8 7 7 7 7 6 6 6 5 5 5 5 5 6 7 8 9 9 9 8 8 5 5 7 7 7 6 6 6 6 7 9 6
12 11 9 9 9 8 10 9 9 10 11 10 9 10 9 12 12 10 8 7 7 7 6 6 6 7 8 7 7 6 5 5 5 5 6 7 8 8 8 8 8 7 5 6 7 7 7 6 5 6 6 6 6 6
9 9 10 9 10 10 10 10 9 10 9 7 8 10 11 10 11 8 8 7 7 7 6 6 6 7 7 7 7 6 6 6 5 6 7 7 7 7 7 7 8 10 7 7 6 6 6 6 6 7 6 6 6 6
10 9 9 10 9 10 9 9 9 8 6 7 9 10 9 7 6 7 7 7 7 6 7 7 7 6 7 7 6 7 7 6 6 8 8 9 8 7 7 7 7 7 7 8 11 8 6 6 6 6 6 6 6 6
10 8 9 8 10 9 8 7 7 6 6 6 7 7 7 7 7 6 6 6 7 7 7 7 7 6 6 6 6 5 6 6 5 6 8 8 7 6 7 7 7 7 7 7 7 7 10 7 7 6 6 6 6 6
8 8 9 9 8 7 7 6 5 6 6 7 8 9 9 8 7 6 6 6 6 6 7 8 7 7 6 6 6 6 7 6 6 6 6 6 7 7 6 6 6 6 6 7 7 6 6 6 6 6 6 6 6 6
8 8 8 9 8 7 6 7 7 8 8 8 9 9 9 9 9 8 5 4 5 5 7 7 7 7 6 6 7 6 9 7 7 7 7 7 8 8 7 7 6 6 6 6 6 5 5 6 6 6 6 5 5 4
7 7 8 8 9 8 8 8 8 9 8 9 8 8 8 9 9 7 5 3 4 4 5 5 5 6 6 6 7 8 9 8 10 12 12 12 12 11 9 8 7 5 5 6 6 6 5 5 5 5 4 4 4 4